Wetterdaten: Dienstag, 15.10.2013
Datum Zeit Temperatur Luftfeuchte Luftdruck Regen Wind Richtung Richtung Sonnenschein ET UV Solar Taupunkt Windchill Windben
15.10.2013 00:00 11,6 C 94 % 1012,1 hPa 0,0 l/m 3,1 km/h (1 Bft) NO 53 0 min 0,000 mm 0,0 UV-I 0 W/m 10,7 C 11,6 C 11,3 km/h (2 Bft)
15.10.2013 00:05 11,6 C 94 % 1012,2 hPa 0,0 l/m 3,2 km/h (1 Bft) O 79 0 min 0,000 mm 0,0 UV-I 0 W/m 10,7 C 11,6 C 8,0 km/h (2 Bft)
15.10.2013 00:10 11,6 C 94 % 1012,0 hPa 0,0 l/m 3,6 km/h (1 Bft) NO 46 0 min 0,000 mm 0,0 UV-I 0 W/m 10,7 C 11,6 C 8,0 km/h (2 Bft)
15.10.2013 00:15 11,6 C 94 % 1011,9 hPa 0,0 l/m 3,5 km/h (1 Bft) O-NO 69 0 min 0,000 mm 0,0 UV-I 0 W/m 10,7 C 11,6 C 11,3 km/h (2 Bft)
15.10.2013 00:20 11,7 C 93 % 1011,8 hPa 0,4 l/m 2,7 km/h (1 Bft) O 88 0 min 0,000 mm 0,0 UV-I 0 W/m 10,6 C 11,7 C 8,0 km/h (2 Bft)
15.10.2013 00:25 11,6 C 93 % 1011,7 hPa 0,2 l/m 2,9 km/h (1 Bft) O-NO 64 0 min 0,000 mm 0,0 UV-I 0 W/m 10,5 C 11,6 C 6,4 km/h (2 Bft)
15.10.2013 00:30 11,6 C 94 % 1011,7 hPa 0,4 l/m 2,1 km/h (1 Bft) O 101 0 min 0,000 mm 0,0 UV-I 0 W/m 10,7 C 11,6 C 6,4 km/h (2 Bft)
15.10.2013 00:35 11,6 C 94 % 1011,6 hPa 0,2 l/m 2,1 km/h (1 Bft) NO 44 0 min 0,000 mm 0,0 UV-I 0 W/m 10,7 C 11,6 C 6,4 km/h (2 Bft)
15.10.2013 00:40 11,5 C 94 % 1011,5 hPa 0,2 l/m 1,8 km/h (1 Bft) O 81 0 min 0,000 mm 0,0 UV-I 0 W/m 10,6 C 11,5 C 6,4 km/h (2 Bft)
15.10.2013 00:45 11,5 C 94 % 1011,5 hPa 0,2 l/m 3,4 km/h (1 Bft) O 99 0 min 0,000 mm 0,0 UV-I 0 W/m 10,6 C 11,5 C 11,3 km/h (2 Bft)
15.10.2013 00:50 11,5 C 94 % 1011,5 hPa 0,4 l/m 1,9 km/h (1 Bft) N-NO 32 0 min 0,000 mm 0,0 UV-I 0 W/m 10,6 C 11,5 C 4,8 km/h (1 Bft)
15.10.2013 00:55 11,5 C 94 % 1011,8 hPa 0,6 l/m 6,9 km/h (2 Bft) SO 134 0 min 0,000 mm 0,0 UV-I 0 W/m 10,6 C 11,2 C 22,5 km/h (4 Bft)
15.10.2013 01:00 11,7 C 93 % 1012,0 hPa 0,4 l/m 15,4 km/h (3 Bft) SW 233 0 min 0,000 mm 0,0 UV-I 0 W/m 10,6 C 7,0 C 33,8 km/h (5 Bft)
15.10.2013 01:05 11,6 C 92 % 1011,9 hPa 0,2 l/m 10,3 km/h (2 Bft) SW 224 0 min 0,000 mm 0,0 UV-I 0 W/m 10,3 C 9,2 C 27,4 km/h (4 Bft)
15.10.2013 01:10 11,4 C 92 % 1011,8 hPa 0,2 l/m 3,7 km/h (1 Bft) W-SW 241 0 min 0,000 mm 0,0 UV-I 0 W/m 10,1 C 11,4 C 12,9 km/h (3 Bft)
15.10.2013 01:15 11,3 C 92 % 1011,8 hPa 0,2 l/m 2,8 km/h (1 Bft) S-SW 209 0 min 0,000 mm 0,0 UV-I 0 W/m 10,0 C 11,3 C 6,4 km/h (2 Bft)
15.10.2013 01:20 11,2 C 92 % 1011,8 hPa 0,2 l/m 1,2 km/h (1 Bft) W-SW 258 0 min 0,000 mm 0,0 UV-I 0 W/m 9,9 C 11,2 C 4,8 km/h (1 Bft)
15.10.2013 01:25 11,2 C 93 % 1011,7 hPa 0,4 l/m 0,5 km/h (0 Bft) SW 228 0 min 0,000 mm 0,0 UV-I 0 W/m 10,1 C 11,2 C 4,8 km/h (1 Bft)
15.10.2013 01:30 11,1 C 93 % 1011,7 hPa 0,2 l/m 0,9 km/h (0 Bft) S-SO 165 0 min 0,000 mm 0,0 UV-I 0 W/m 10,0 C 11,1 C 4,8 km/h (1 Bft)
15.10.2013 01:35 11,0 C 93 % 1011,8 hPa 0,4 l/m 2,1 km/h (1 Bft) S 180 0 min 0,000 mm 0,0 UV-I 0 W/m 9,9 C 11,0 C 6,4 km/h (2 Bft)
15.10.2013 01:40 10,9 C 93 % 1011,6 hPa 0,4 l/m 1,1 km/h (1 Bft) S-SW 201 0 min 0,000 mm 0,0 UV-I 0 W/m 9,8 C 10,9 C 4,8 km/h (1 Bft)
15.10.2013 01:45 10,8 C 93 % 1011,4 hPa 0,2 l/m 1,9 km/h (1 Bft) O 84 0 min 0,000 mm 0,0 UV-I 0 W/m 9,7 C 10,8 C 9,7 km/h (2 Bft)
15.10.2013 01:50 10,8 C 93 % 1011,5 hPa 0,2 l/m 0,4 km/h (0 Bft) O 96 0 min 0,000 mm 0,0 UV-I 0 W/m 9,7 C 10,8 C 3,2 km/h (1 Bft)
15.10.2013 01:55 10,8 C 93 % 1011,5 hPa 0,0 l/m 0,0 km/h (0 Bft) O 96 0 min 0,000 mm 0,0 UV-I 0 W/m 9,7 C 10,8 C 0,0 km/h (0 Bft)
15.10.2013 02:00 10,7 C 93 % 1011,3 hPa 0,0 l/m 0,2 km/h (0 Bft) O 85 0 min 0,000 mm 0,0 UV-I 0 W/m 9,6 C 10,7 C 3,2 km/h (1 Bft)
15.10.2013 02:05 10,7 C 93 % 1011,3 hPa 0,0 l/m 0,7 km/h (0 Bft) SW 221 0 min 0,000 mm 0,0 UV-I 0 W/m 9,6 C 10,7 C 4,8 km/h (1 Bft)
15.10.2013 02:10 10,6 C 93 % 1011,3 hPa 0,0 l/m 1,1 km/h (1 Bft) S-SO 156 0 min 0,000 mm 0,0 UV-I 0 W/m 9,5 C 10,6 C 4,8 km/h (1 Bft)
15.10.2013 02:15 10,6 C 93 % 1011,2 hPa 0,0 l/m 0,1 km/h (0 Bft) S-SO 154 0 min 0,000 mm 0,0 UV-I 0 W/m 9,5 C 10,6 C 1,6 km/h (1 Bft)
15.10.2013 02:20 10,6 C 93 % 1011,2 hPa 0,0 l/m 1,0 km/h (0 Bft) O-SO 107 0 min 0,000 mm 0,0 UV-I 0 W/m 9,5 C 10,6 C 3,2 km/h (1 Bft)
15.10.2013 02:25 10,6 C 93 % 1011,2 hPa 0,0 l/m 1,2 km/h (1 Bft) SO 124 0 min 0,000 mm 0,0 UV-I 0 W/m 9,5 C 10,6 C 4,8 km/h (1 Bft)
15.10.2013 02:30 10,6 C 93 % 1011,1 hPa 0,2 l/m 2,6 km/h (1 Bft) O 86 0 min 0,000 mm 0,0 UV-I 0 W/m 9,5 C 10,6 C 6,4 km/h (2 Bft)
15.10.2013 02:35 10,6 C 93 % 1011,2 hPa 0,0 l/m 2,0 km/h (1 Bft) O-SO 107 0 min 0,000 mm 0,0 UV-I 0 W/m 9,5 C 10,6 C 4,8 km/h (1 Bft)
15.10.2013 02:40 10,6 C 94 % 1011,0 hPa 0,2 l/m 2,5 km/h (1 Bft) SO 142 0 min 0,000 mm 0,0 UV-I 0 W/m 9,7 C 10,6 C 6,4 km/h (2 Bft)
15.10.2013 02:45 10,6 C 94 % 1010,9 hPa 0,0 l/m 5,0 km/h (1 Bft) O-SO 109 0 min 0,000 mm 0,0 UV-I 0 W/m 9,7 C 10,6 C 14,5 km/h (3 Bft)
15.10.2013 02:50 10,6 C 94 % 1010,9 hPa 0,0 l/m 6,3 km/h (2 Bft) SO 140 0 min 0,000 mm 0,0 UV-I 0 W/m 9,7 C 10,6 C 11,3 km/h (2 Bft)
15.10.2013 02:55 10,7 C 94 % 1010,9 hPa 0,0 l/m 5,6 km/h (1 Bft) S 185 0 min 0,000 mm 0,0 UV-I 0 W/m 9,8 C 10,7 C 14,5 km/h (3 Bft)
15.10.2013 03:00 10,8 C 94 % 1010,7 hPa 0,0 l/m 3,5 km/h (1 Bft) SO 140 0 min 0,000 mm 0,0 UV-I 0 W/m 9,9 C 10,8 C 11,3 km/h (2 Bft)
15.10.2013 03:05 10,8 C 93 % 1010,5 hPa 0,0 l/m 3,4 km/h (1 Bft) S-SO 166 0 min 0,000 mm 0,0 UV-I 0 W/m 9,7 C 10,8 C 11,3 km/h (2 Bft)
15.10.2013 03:10 10,8 C 93 % 1010,5 hPa 0,0 l/m 3,3 km/h (1 Bft) SO 146 0 min 0,000 mm 0,0 UV-I 0 W/m 9,7 C 10,8 C 9,7 km/h (2 Bft)
15.10.2013 03:15 10,8 C 93 % 1010,4 hPa 0,0 l/m 5,3 km/h (1 Bft) O 84 0 min 0,000 mm 0,0 UV-I 0 W/m 9,7 C 10,8 C 14,5 km/h (3 Bft)
15.10.2013 03:20 10,8 C 93 % 1010,5 hPa 0,0 l/m 4,1 km/h (1 Bft) S-SW 200 0 min 0,000 mm 0,0 UV-I 0 W/m 9,7 C 10,8 C 11,3 km/h (2 Bft)
15.10.2013 03:25 10,8 C 93 % 1010,3 hPa 0,0 l/m 3,1 km/h (1 Bft) O-SO 117 0 min 0,000 mm 0,0 UV-I 0 W/m 9,7 C 10,8 C 9,7 km/h (2 Bft)
15.10.2013 03:30 10,8 C 93 % 1010,4 hPa 0,0 l/m 5,1 km/h (1 Bft) SO 144 0 min 0,000 mm 0,0 UV-I 0 W/m 9,7 C 10,8 C 12,9 km/h (3 Bft)
15.10.2013 03:35 10,8 C 93 % 1010,2 hPa 0,0 l/m 3,5 km/h (1 Bft) S-SO 156 0 min 0,000 mm 0,0 UV-I 0 W/m 9,7 C 10,8 C 12,9 km/h (3 Bft)
15.10.2013 03:40 10,9 C 93 % 1010,1 hPa 0,0 l/m 3,8 km/h (1 Bft) S 177 0 min 0,000 mm 0,0 UV-I 0 W/m 9,8 C 10,9 C 12,9 km/h (3 Bft)
15.10.2013 03:45 10,8 C 92 % 1010,1 hPa 0,0 l/m 1,4 km/h (1 Bft) S 187 0 min 0,000 mm 0,0 UV-I 0 W/m 9,6 C 10,8 C 4,8 km/h (1 Bft)
15.10.2013 03:50 10,8 C 93 % 1010,1 hPa 0,0 l/m 3,3 km/h (1 Bft) O-SO 121 0 min 0,000 mm 0,0 UV-I 0 W/m 9,7 C 10,8 C 9,7 km/h (2 Bft)
15.10.2013 03:55 10,8 C 92 % 1010,1 hPa 0,0 l/m 1,7 km/h (1 Bft) S-SW 198 0 min 0,000 mm 0,0 UV-I 0 W/m 9,6 C 10,8 C 4,8 km/h (1 Bft)
15.10.2013 04:00 10,8 C 93 % 1010,0 hPa 0,0 l/m 4,6 km/h (1 Bft) S-SO 155 0 min 0,000 mm 0,0 UV-I 0 W/m 9,7 C 10,8 C 11,3 km/h (2 Bft)
15.10.2013 04:05 10,8 C 93 % 1009,9 hPa 0,0 l/m 3,9 km/h (1 Bft) SW 236 0 min 0,000 mm 0,0 UV-I 0 W/m 9,7 C 10,8 C 11,3 km/h (2 Bft)
15.10.2013 04:10 10,8 C 93 % 1009,9 hPa 0,0 l/m 4,0 km/h (1 Bft) SW 221 0 min 0,000 mm 0,0 UV-I 0 W/m 9,7 C 10,8 C 11,3 km/h (2 Bft)
15.10.2013 04:15 10,8 C 93 % 1010,0 hPa 0,0 l/m 4,6 km/h (1 Bft) S-SW 198 0 min 0,000 mm 0,0 UV-I 0 W/m 9,7 C 10,8 C 9,7 km/h (2 Bft)
15.10.2013 04:20 10,8 C 93 % 1009,9 hPa 0,0 l/m 1,9 km/h (1 Bft) SW 227 0 min 0,000 mm 0,0 UV-I 0 W/m 9,7 C 10,8 C 6,4 km/h (2 Bft)
15.10.2013 04:25 10,8 C 93 % 1010,0 hPa 0,0 l/m 1,8 km/h (1 Bft) S 178 0 min 0,000 mm 0,0 UV-I 0 W/m 9,7 C 10,8 C 9,7 km/h (2 Bft)
15.10.2013 04:30 10,7 C 93 % 1010,0 hPa 0,0 l/m 2,1 km/h (1 Bft) S-SW 201 0 min 0,000 mm 0,0 UV-I 0 W/m 9,6 C 10,7 C 8,0 km/h (2 Bft)
15.10.2013 04:35 10,6 C 93 % 1010,0 hPa 0,0 l/m 2,9 km/h (1 Bft) S-SW 199 0 min 0,000 mm 0,0 UV-I 0 W/m 9,5 C 10,6 C 9,7 km/h (2 Bft)
15.10.2013 04:40 10,6 C 93 % 1010,0 hPa 0,0 l/m 2,2 km/h (1 Bft) S-SW 205 0 min 0,000 mm 0,0 UV-I 0 W/m 9,5 C 10,6 C 8,0 km/h (2 Bft)
15.10.2013 04:45 10,5 C 93 % 1009,9 hPa 0,0 l/m 4,5 km/h (1 Bft) S 178 0 min 0,000 mm 0,0 UV-I 0 W/m 9,4 C 10,5 C 9,7 km/h (2 Bft)
15.10.2013 04:50 10,5 C 92 % 1009,8 hPa 0,0 l/m 6,8 km/h (2 Bft) S 188 0 min 0,000 mm 0,0 UV-I 0 W/m 9,3 C 10,2 C 12,9 km/h (3 Bft)
15.10.2013 04:55 10,4 C 92 % 1009,9 hPa 0,0 l/m 6,3 km/h (2 Bft) S-SO 161 0 min 0,000 mm 0,0 UV-I 0 W/m 9,2 C 10,4 C 12,9 km/h (3 Bft)
15.10.2013 05:00 10,4 C 92 % 1009,9 hPa 0,0 l/m 6,1 km/h (2 Bft) SW 215 0 min 0,000 mm 0,0 UV-I 0 W/m 9,2 C 10,4 C 17,7 km/h (3 Bft)
15.10.2013 05:05 10,4 C 91 % 1009,7 hPa 0,0 l/m 6,2 km/h (2 Bft) SO 139 0 min 0,000 mm 0,0 UV-I 0 W/m 9,0 C 10,4 C 17,7 km/h (3 Bft)
15.10.2013 05:10 10,3 C 90 % 1009,8 hPa 0,0 l/m 4,9 km/h (1 Bft) NW 304 0 min 0,000 mm 0,0 UV-I 0 W/m 8,7 C 10,3 C 12,9 km/h (3 Bft)
15.10.2013 05:15 10,3 C 90 % 1009,7 hPa 0,0 l/m 3,8 km/h (1 Bft) S-SW 211 0 min 0,000 mm 0,0 UV-I 0 W/m 8,7 C 10,3 C 11,3 km/h (2 Bft)
15.10.2013 05:20 10,3 C 91 % 1009,7 hPa 0,0 l/m 2,2 km/h (1 Bft) S-SW 198 0 min 0,000 mm 0,0 UV-I 0 W/m 8,9 C 10,3 C 9,7 km/h (2 Bft)
15.10.2013 05:25 10,2 C 91 % 1009,4 hPa 0,0 l/m 3,0 km/h (1 Bft) S-SW 195 0 min 0,000 mm 0,0 UV-I 0 W/m 8,8 C 10,2 C 9,7 km/h (2 Bft)
15.10.2013 05:30 10,2 C 91 % 1009,3 hPa 0,0 l/m 1,6 km/h (1 Bft) S-SW 198 0 min 0,000 mm 0,0 UV-I 0 W/m 8,8 C 10,2 C 6,4 km/h (2 Bft)
15.10.2013 05:35 10,1 C 91 % 1009,4 hPa 0,0 l/m 3,1 km/h (1 Bft) W-SW 249 0 min 0,000 mm 0,0 UV-I 0 W/m 8,7 C 10,1 C 9,7 km/h (2 Bft)
15.10.2013 05:40 10,1 C 91 % 1009,3 hPa 0,0 l/m 4,2 km/h (1 Bft) SW 220 0 min 0,000 mm 0,0 UV-I 0 W/m 8,7 C 10,1 C 12,9 km/h (3 Bft)
15.10.2013 05:45 10,1 C 91 % 1009,6 hPa 0,0 l/m 5,3 km/h (1 Bft) SW 229 0 min 0,000 mm 0,0 UV-I 0 W/m 8,7 C 10,1 C 11,3 km/h (2 Bft)
15.10.2013 05:50 10,0 C 92 % 1009,7 hPa 0,4 l/m 2,9 km/h (1 Bft) SW 234 0 min 0,000 mm 0,0 UV-I 0 W/m 8,8 C 10,0 C 11,3 km/h (2 Bft)
15.10.2013 05:55 9,9 C 92 % 1009,6 hPa 0,2 l/m 2,9 km/h (1 Bft) W 262 0 min 0,000 mm 0,0 UV-I 0 W/m 8,7 C 9,9 C 11,3 km/h (2 Bft)
15.10.2013 06:00 9,8 C 93 % 1009,2 hPa 0,2 l/m 2,8 km/h (1 Bft) S-SO 157 0 min 0,000 mm 0,0 UV-I 0 W/m 8,7 C 9,8 C 9,7 km/h (2 Bft)
15.10.2013 06:05 9,8 C 92 % 1009,3 hPa 0,2 l/m 2,4 km/h (1 Bft) SW 232 0 min 0,000 mm 0,0 UV-I 0 W/m 8,6 C 9,8 C 8,0 km/h (2 Bft)
15.10.2013 06:10 9,8 C 93 % 1009,3 hPa 0,2 l/m 4,1 km/h (1 Bft) SW 234 0 min 0,000 mm 0,0 UV-I 0 W/m 8,7 C 9,8 C 9,7 km/h (2 Bft)
15.10.2013 06:15 9,7 C 93 % 1009,4 hPa 0,0 l/m 4,9 km/h (1 Bft) W 273 0 min 0,000 mm 0,0 UV-I 0 W/m 8,6 C 9,7 C 11,3 km/h (2 Bft)
15.10.2013 06:20 9,7 C 92 % 1009,4 hPa 0,0 l/m 6,6 km/h (2 Bft) W-SW 250 0 min 0,000 mm 0,0 UV-I 0 W/m 8,5 C 9,6 C 12,9 km/h (3 Bft)
15.10.2013 06:25 9,7 C 92 % 1009,4 hPa 0,0 l/m 4,1 km/h (1 Bft) SW 218 0 min 0,000 mm 0,0 UV-I 0 W/m 8,5 C 9,7 C 12,9 km/h (3 Bft)
15.10.2013 06:30 9,7 C 93 % 1009,4 hPa 0,0 l/m 2,9 km/h (1 Bft) SW 234 0 min 0,000 mm 0,0 UV-I 0 W/m 8,6 C 9,7 C 9,7 km/h (2 Bft)
15.10.2013 06:35 9,6 C 93 % 1009,3 hPa 0,0 l/m 3,6 km/h (1 Bft) W 266 0 min 0,000 mm 0,0 UV-I 0 W/m 8,5 C 9,6 C 11,3 km/h (2 Bft)
15.10.2013 06:40 9,6 C 93 % 1009,1 hPa 0,0 l/m 1,5 km/h (1 Bft) W-NW 297 0 min 0,000 mm 0,0 UV-I 0 W/m 8,5 C 9,6 C 4,8 km/h (1 Bft)
15.10.2013 06:45 9,5 C 93 % 1009,1 hPa 0,0 l/m 4,0 km/h (1 Bft) W 277 0 min 0,000 mm 0,0 UV-I 0 W/m 8,4 C 9,5 C 8,0 km/h (2 Bft)
15.10.2013 06:50 9,4 C 93 % 1009,0 hPa 0,0 l/m 2,9 km/h (1 Bft) SW 231 0 min 0,000 mm 0,0 UV-I 0 W/m 8,3 C 9,4 C 8,0 km/h (2 Bft)
15.10.2013 06:55 9,3 C 93 % 1009,1 hPa 0,0 l/m 2,9 km/h (1 Bft) SW 227 0 min 0,000 mm 0,0 UV-I 0 W/m 8,2 C 9,3 C 6,4 km/h (2 Bft)
15.10.2013 07:00 9,3 C 93 % 1009,1 hPa 0,0 l/m 1,4 km/h (1 Bft) W-SW 246 0 min 0,000 mm 0,0 UV-I 0 W/m 8,2 C 9,3 C 6,4 km/h (2 Bft)
15.10.2013 07:05 9,3 C 93 % 1009,1 hPa 0,0 l/m 5,0 km/h (1 Bft) W 265 0 min 0,000 mm 0,0 UV-I 0 W/m 8,2 C 9,3 C 11,3 km/h (2 Bft)
15.10.2013 07:10 9,3 C 93 % 1009,1 hPa 0,0 l/m 2,2 km/h (1 Bft) W 275 0 min 0,000 mm 0,0 UV-I 0 W/m 8,2 C 9,3 C 6,4 km/h (2 Bft)
15.10.2013 07:15 9,3 C 94 % 1009,0 hPa 0,0 l/m 4,7 km/h (1 Bft) W 275 0 min 0,000 mm 0,0 UV-I 0 W/m 8,4 C 9,3 C 9,7 km/h (2 Bft)
15.10.2013 07:20 9,3 C 94 % 1009,0 hPa 0,0 l/m 4,8 km/h (1 Bft) W-NW 294 0 min 0,000 mm 0,0 UV-I 0 W/m 8,4 C 9,3 C 8,0 km/h (2 Bft)
15.10.2013 07:25 9,3 C 94 % 1009,0 hPa 0,0 l/m 1,6 km/h (1 Bft) W-NW 296 0 min 0,000 mm 0,0 UV-I 0 W/m 8,4 C 9,3 C 6,4 km/h (2 Bft)
15.10.2013 07:30 9,3 C 94 % 1009,1 hPa 0,0 l/m 2,8 km/h (1 Bft) W 259 0 min 0,000 mm 0,0 UV-I 0 W/m 8,4 C 9,3 C 6,4 km/h (2 Bft)
15.10.2013 07:35 9,3 C 94 % 1009,2 hPa 0,0 l/m 1,8 km/h (1 Bft) W 260 0 min 0,000 mm 0,0 UV-I 0 W/m 8,4 C 9,3 C 4,8 km/h (1 Bft)
15.10.2013 07:40 9,3 C 94 % 1009,2 hPa 0,0 l/m 3,3 km/h (1 Bft) W-NW 289 0 min 0,000 mm 0,0 UV-I 0 W/m 8,4 C 9,3 C 8,0 km/h (2 Bft)
15.10.2013 07:45 9,3 C 94 % 1009,1 hPa 0,0 l/m 3,0 km/h (1 Bft) W-NW 282 0 min 0,000 mm 0,0 UV-I 0 W/m 8,4 C 9,3 C 8,0 km/h (2 Bft)
15.10.2013 07:50 9,3 C 94 % 1009,1 hPa 0,0 l/m 0,8 km/h (0 Bft) W 279 0 min 0,000 mm 0,0 UV-I 0 W/m 8,4 C 9,3 C 3,2 km/h (1 Bft)
15.10.2013 07:55 9,3 C 94 % 1009,2 hPa 0,0 l/m 2,5 km/h (1 Bft) W-NW 296 0 min 0,000 mm 0,0 UV-I 0 W/m 8,4 C 9,3 C 6,4 km/h (2 Bft)
15.10.2013 08:00 9,3 C 94 % 1009,2 hPa 0,0 l/m 3,3 km/h (1 Bft) W 278 0 min 0,000 mm 0,0 UV-I 0 W/m 8,4 C 9,3 C 6,4 km/h (2 Bft)
15.10.2013 08:05 9,3 C 94 % 1009,2 hPa 0,0 l/m 1,7 km/h (1 Bft) W 279 0 min 0,000 mm 0,0 UV-I 0 W/m 8,4 C 9,3 C 4,8 km/h (1 Bft)
15.10.2013 08:10 9,2 C 93 % 1009,2 hPa 0,0 l/m 2,9 km/h (1 Bft) W 278 0 min 0,000 mm 0,0 UV-I 0 W/m 8,1 C 9,2 C 9,7 km/h (2 Bft)
15.10.2013 08:15 9,2 C 93 % 1009,2 hPa 0,0 l/m 1,1 km/h (1 Bft) W 278 0 min 0,000 mm 0,0 UV-I 0 W/m 8,1 C 9,2 C 4,8 km/h (1 Bft)
15.10.2013 08:20 9,2 C 93 % 1009,1 hPa 0,0 l/m 2,0 km/h (1 Bft) W-NW 284 0 min 0,000 mm 0,0 UV-I 5 W/m 8,1 C 9,2 C 4,8 km/h (1 Bft)
15.10.2013 08:25 9,1 C 93 % 1009,0 hPa 0,0 l/m 2,9 km/h (1 Bft) W-NW 284 0 min 0,000 mm 0,0 UV-I 9 W/m 8,0 C 9,1 C 6,4 km/h (2 Bft)
15.10.2013 08:30 9,1 C 93 % 1009,1 hPa 0,2 l/m 3,0 km/h (1 Bft) W 279 0 min 0,000 mm 0,0 UV-I 26 W/m 8,0 C 9,1 C 8,0 km/h (2 Bft)
15.10.2013 08:35 9,1 C 93 % 1009,1 hPa 0,0 l/m 2,3 km/h (1 Bft) W-NW 282 0 min 0,000 mm 0,0 UV-I 35 W/m 8,0 C 9,1 C 6,4 km/h (2 Bft)
15.10.2013 08:40 9,1 C 93 % 1009,2 hPa 0,0 l/m 0,2 km/h (0 Bft) W-NW 282 0 min 0,000 mm 0,0 UV-I 47 W/m 8,0 C 9,1 C 4,8 km/h (1 Bft)
15.10.2013 08:45 9,2 C 93 % 1009,2 hPa 0,0 l/m 0,4 km/h (0 Bft) SW 232 0 min 0,000 mm 0,0 UV-I 58 W/m 8,1 C 9,2 C 4,8 km/h (1 Bft)
15.10.2013 08:50 9,2 C 93 % 1009,1 hPa 0,0 l/m 0,1 km/h (0 Bft) W 273 5 min 0,000 mm 0,0 UV-I 84 W/m 8,1 C 9,2 C 3,2 km/h (1 Bft)
15.10.2013 08:55 9,3 C 93 % 1009,3 hPa 0,0 l/m 1,2 km/h (1 Bft) W-NW 283 5 min 0,000 mm 0,0 UV-I 97 W/m 8,2 C 9,3 C 4,8 km/h (1 Bft)
15.10.2013 09:00 9,6 C 93 % 1009,3 hPa 0,0 l/m 1,1 km/h (1 Bft) SW 235 5 min 0,025 mm 0,0 UV-I 97 W/m 8,5 C 9,6 C 6,4 km/h (2 Bft)
15.10.2013 09:05 9,5 C 92 % 1009,3 hPa 0,0 l/m 4,2 km/h (1 Bft) W 281 0 min 0,000 mm 0,0 UV-I 86 W/m 8,3 C 9,5 C 9,7 km/h (2 Bft)
15.10.2013 09:10 9,6 C 92 % 1009,3 hPa 0,0 l/m 3,0 km/h (1 Bft) SW 227 5 min 0,000 mm 0,0 UV-I 146 W/m 8,4 C 9,6 C 11,3 km/h (2 Bft)
15.10.2013 09:15 9,7 C 91 % 1009,4 hPa 0,0 l/m 4,9 km/h (1 Bft) W 267 5 min 0,000 mm 0,0 UV-I 155 W/m 8,3 C 9,7 C 11,3 km/h (2 Bft)
15.10.2013 09:20 9,8 C 91 % 1009,4 hPa 0,0 l/m 3,8 km/h (1 Bft) S-SW 207 5 min 0,000 mm 0,0 UV-I 162 W/m 8,4 C 9,8 C 11,3 km/h (2 Bft)
15.10.2013 09:25 10,1 C 91 % 1009,3 hPa 0,0 l/m 1,7 km/h (1 Bft) SW 215 5 min 0,000 mm 0,0 UV-I 158 W/m 8,7 C 10,1 C 8,0 km/h (2 Bft)
15.10.2013 09:30 10,0 C 89 % 1009,2 hPa 0,0 l/m 4,2 km/h (1 Bft) W 263 5 min 0,000 mm 0,0 UV-I 167 W/m 8,3 C 10,0 C 11,3 km/h (2 Bft)
15.10.2013 09:35 10,1 C 89 % 1009,3 hPa 0,0 l/m 3,1 km/h (1 Bft) W 264 5 min 0,000 mm 0,5 UV-I 179 W/m 8,4 C 10,1 C 9,7 km/h (2 Bft)
15.10.2013 09:40 10,3 C 90 % 1009,2 hPa 0,0 l/m 1,8 km/h (1 Bft) SW 235 5 min 0,000 mm 0,5 UV-I 225 W/m 8,7 C 10,3 C 9,7 km/h (2 Bft)
15.10.2013 09:45 10,3 C 88 % 1009,3 hPa 0,0 l/m 6,0 km/h (2 Bft) W-SW 254 5 min 0,000 mm 0,5 UV-I 272 W/m 8,4 C 10,3 C 12,9 km/h (3 Bft)
15.10.2013 09:50 10,5 C 88 % 1009,3 hPa 0,0 l/m 5,6 km/h (1 Bft) W 261 5 min 0,000 mm 0,5 UV-I 244 W/m 8,6 C 10,5 C 16,1 km/h (3 Bft)
15.10.2013 09:55 10,4 C 86 % 1009,2 hPa 0,0 l/m 9,1 km/h (2 Bft) SW 233 5 min 0,000 mm 0,6 UV-I 276 W/m 8,2 C 8,6 C 19,3 km/h (3 Bft)
15.10.2013 10:00 10,4 C 87 % 1009,3 hPa 0,0 l/m 8,4 km/h (2 Bft) W-SW 251 5 min 0,102 mm 0,7 UV-I 292 W/m 8,3 C 9,0 C 17,7 km/h (3 Bft)
15.10.2013 10:05 10,5 C 87 % 1009,3 hPa 0,0 l/m 8,2 km/h (2 Bft) W-SW 244 5 min 0,000 mm 0,7 UV-I 309 W/m 8,4 C 9,2 C 20,9 km/h (4 Bft)
15.10.2013 10:10 10,7 C 87 % 1009,3 hPa 0,0 l/m 9,2 km/h (2 Bft) W-SW 252 5 min 0,000 mm 0,7 UV-I 339 W/m 8,6 C 8,8 C 17,7 km/h (3 Bft)
15.10.2013 10:15 10,7 C 87 % 1009,4 hPa 0,0 l/m 10,1 km/h (2 Bft) W-SW 246 0 min 0,000 mm 0,7 UV-I 162 W/m 8,6 C 8,3 C 22,5 km/h (4 Bft)
15.10.2013 10:20 10,7 C 86 % 1009,3 hPa 0,0 l/m 9,7 km/h (2 Bft) W 277 5 min 0,000 mm 0,8 UV-I 399 W/m 8,5 C 8,5 C 22,5 km/h (4 Bft)
15.10.2013 10:25 10,8 C 86 % 1009,3 hPa 0,0 l/m 9,4 km/h (2 Bft) SW 222 5 min 0,000 mm 0,7 UV-I 204 W/m 8,6 C 8,8 C 19,3 km/h (3 Bft)
15.10.2013 10:30 10,7 C 85 % 1009,3 hPa 0,0 l/m 10,3 km/h (2 Bft) W-NW 294 5 min 0,000 mm 0,9 UV-I 410 W/m 8,3 C 8,2 C 24,1 km/h (4 Bft)
15.10.2013 10:35 10,8 C 84 % 1009,3 hPa 0,0 l/m 12,0 km/h (2 Bft) W 263 5 min 0,000 mm 1,0 UV-I 380 W/m 8,2 C 7,4 C 22,5 km/h (4 Bft)
15.10.2013 10:40 11,0 C 84 % 1009,2 hPa 0,0 l/m 8,5 km/h (2 Bft) W-SW 254 5 min 0,000 mm 1,0 UV-I 357 W/m 8,4 C 9,6 C 16,1 km/h (3 Bft)
15.10.2013 10:45 10,9 C 83 % 1009,2 hPa 0,0 l/m 11,3 km/h (2 Bft) S-SO 155 5 min 0,000 mm 1,1 UV-I 353 W/m 8,1 C 7,9 C 22,5 km/h (4 Bft)
15.10.2013 10:50 11,1 C 83 % 1009,1 hPa 0,0 l/m 8,3 km/h (2 Bft) S-SW 211 5 min 0,000 mm 1,1 UV-I 415 W/m 8,3 C 9,8 C 14,5 km/h (3 Bft)
15.10.2013 10:55 11,1 C 83 % 1009,1 hPa 0,0 l/m 11,4 km/h (2 Bft) W-SW 241 5 min 0,000 mm 1,2 UV-I 385 W/m 8,3 C 8,1 C 24,1 km/h (4 Bft)
15.10.2013 11:00 11,3 C 83 % 1009,1 hPa 0,0 l/m 7,6 km/h (2 Bft) SW 225 0 min 0,000 mm 0,9 UV-I 214 W/m 8,5 C 10,5 C 17,7 km/h (3 Bft)
15.10.2013 11:05 11,4 C 82 % 1009,1 hPa 0,0 l/m 7,2 km/h (2 Bft) S-SW 202 5 min 0,178 mm 1,2 UV-I 536 W/m 8,4 C 10,9 C 16,1 km/h (3 Bft)
15.10.2013 11:10 11,4 C 82 % 1009,1 hPa 0,0 l/m 10,5 km/h (2 Bft) S-SW 205 5 min 0,000 mm 1,1 UV-I 534 W/m 8,4 C 8,9 C 19,3 km/h (3 Bft)
15.10.2013 11:15 11,7 C 81 % 1009,0 hPa 0,0 l/m 9,0 km/h (2 Bft) W-SW 248 5 min 0,000 mm 1,1 UV-I 582 W/m 8,5 C 10,0 C 16,1 km/h (3 Bft)
15.10.2013 11:20 11,5 C 81 % 1009,0 hPa 0,0 l/m 9,2 km/h (2 Bft) S-SO 147 5 min 0,000 mm 1,0 UV-I 598 W/m 8,4 C 9,7 C 24,1 km/h (4 Bft)
15.10.2013 11:25 11,6 C 81 % 1008,9 hPa 0,0 l/m 7,4 km/h (2 Bft) W-SW 244 0 min 0,000 mm 0,9 UV-I 174 W/m 8,5 C 10,9 C 17,7 km/h (3 Bft)
15.10.2013 11:30 11,3 C 81 % 1008,8 hPa 0,0 l/m 7,5 km/h (2 Bft) W-NW 282 0 min 0,000 mm 0,8 UV-I 149 W/m 8,2 C 10,5 C 20,9 km/h (4 Bft)
15.10.2013 11:35 11,3 C 82 % 1008,8 hPa 0,0 l/m 5,7 km/h (1 Bft) W-SW 256 0 min 0,000 mm 0,9 UV-I 237 W/m 8,3 C 11,3 C 12,9 km/h (3 Bft)
15.10.2013 11:40 11,2 C 81 % 1008,9 hPa 0,0 l/m 9,4 km/h (2 Bft) S-SW 206 0 min 0,000 mm 0,9 UV-I 250 W/m 8,1 C 9,3 C 19,3 km/h (3 Bft)
15.10.2013 11:45 11,3 C 81 % 1008,9 hPa 0,0 l/m 10,1 km/h (2 Bft) W 262 0 min 0,000 mm 0,9 UV-I 195 W/m 8,2 C 9,0 C 19,3 km/h (3 Bft)
15.10.2013 11:50 11,3 C 82 % 1008,9 hPa 0,0 l/m 6,3 km/h (2 Bft) SW 232 0 min 0,000 mm 0,9 UV-I 218 W/m 8,3 C 11,3 C 17,7 km/h (3 Bft)
15.10.2013 11:55 11,3 C 81 % 1008,9 hPa 0,0 l/m 8,3 km/h (2 Bft) W-SW 241 0 min 0,000 mm 1,0 UV-I 197 W/m 8,2 C 10,0 C 17,7 km/h (3 Bft)
15.10.2013 12:00 11,3 C 80 % 1008,9 hPa 0,0 l/m 9,0 km/h (2 Bft) W-SW 237 0 min 0,000 mm 1,0 UV-I 183 W/m 8,0 C 9,6 C 19,3 km/h (3 Bft)
15.10.2013 12:05 11,2 C 81 % 1008,9 hPa 0,0 l/m 8,0 km/h (2 Bft) SW 223 0 min 0,152 mm 0,9 UV-I 181 W/m 8,1 C 10,1 C 16,1 km/h (3 Bft)
15.10.2013 12:10 11,2 C 80 % 1008,9 hPa 0,0 l/m 10,1 km/h (2 Bft) S-SW 212 0 min 0,000 mm 0,9 UV-I 195 W/m 7,9 C 8,9 C 24,1 km/h (4 Bft)
15.10.2013 12:15 11,2 C 81 % 1008,8 hPa 0,0 l/m 8,5 km/h (2 Bft) SW 217 0 min 0,000 mm 1,0 UV-I 218 W/m 8,1 C 9,8 C 17,7 km/h (3 Bft)
15.10.2013 12:20 11,2 C 80 % 1008,9 hPa 0,0 l/m 8,9 km/h (2 Bft) S-SW 195 0 min 0,000 mm 1,0 UV-I 156 W/m 7,9 C 9,6 C 19,3 km/h (3 Bft)
15.10.2013 12:25 11,1 C 82 % 1008,8 hPa 0,0 l/m 6,7 km/h (2 Bft) S 190 5 min 0,000 mm 1,3 UV-I 278 W/m 8,1 C 10,9 C 17,7 km/h (3 Bft)
15.10.2013 12:30 11,1 C 82 % 1008,7 hPa 0,0 l/m 8,8 km/h (2 Bft) S-SW 194 0 min 0,000 mm 1,3 UV-I 214 W/m 8,1 C 9,5 C 20,9 km/h (4 Bft)
15.10.2013 12:35 11,1 C 81 % 1008,8 hPa 0,0 l/m 9,4 km/h (2 Bft) W-SW 247 0 min 0,000 mm 1,1 UV-I 183 W/m 8,0 C 9,1 C 24,1 km/h (4 Bft)
15.10.2013 12:40 11,0 C 81 % 1008,8 hPa 0,0 l/m 9,5 km/h (2 Bft) S 185 0 min 0,000 mm 0,8 UV-I 121 W/m 7,9 C 9,0 C 20,9 km/h (4 Bft)
15.10.2013 12:45 10,9 C 82 % 1008,8 hPa 0,0 l/m 10,4 km/h (2 Bft) SW 227 0 min 0,000 mm 0,8 UV-I 130 W/m 7,9 C 8,4 C 24,1 km/h (4 Bft)
15.10.2013 12:50 10,7 C 83 % 1008,9 hPa 0,0 l/m 8,3 km/h (2 Bft) W-SW 244 0 min 0,000 mm 0,9 UV-I 149 W/m 7,9 C 9,4 C 14,5 km/h (3 Bft)
15.10.2013 12:55 10,7 C 84 % 1008,9 hPa 0,0 l/m 6,6 km/h (2 Bft) W-SW 257 0 min 0,000 mm 1,1 UV-I 160 W/m 8,1 C 10,6 C 12,9 km/h (3 Bft)
15.10.2013 13:00 10,6 C 83 % 1008,8 hPa 0,0 l/m 6,6 km/h (2 Bft) W-SW 250 0 min 0,000 mm 1,0 UV-I 185 W/m 7,8 C 10,5 C 14,5 km/h (3 Bft)
15.10.2013 13:05 10,9 C 83 % 1008,6 hPa 0,0 l/m 6,4 km/h (2 Bft) S-SW 201 5 min 0,102 mm 1,2 UV-I 299 W/m 8,1 C 10,9 C 16,1 km/h (3 Bft)
15.10.2013 13:10 10,9 C 83 % 1008,6 hPa 0,0 l/m 7,0 km/h (2 Bft) S-SW 207 0 min 0,000 mm 1,2 UV-I 253 W/m 8,1 C 10,5 C 16,1 km/h (3 Bft)
15.10.2013 13:15 10,9 C 83 % 1008,5 hPa 0,0 l/m 8,5 km/h (2 Bft) S-SW 212 0 min 0,000 mm 1,2 UV-I 258 W/m 8,1 C 9,5 C 17,7 km/h (3 Bft)
15.10.2013 13:20 10,9 C 83 % 1008,5 hPa 0,0 l/m 8,9 km/h (2 Bft) W-SW 258 0 min 0,000 mm 0,9 UV-I 181 W/m 8,1 C 9,2 C 20,9 km/h (4 Bft)
15.10.2013 13:25 10,9 C 82 % 1008,4 hPa 0,0 l/m 8,8 km/h (2 Bft) S-SW 211 0 min 0,000 mm 0,8 UV-I 167 W/m 7,9 C 9,3 C 20,9 km/h (4 Bft)
15.10.2013 13:30 10,9 C 84 % 1008,4 hPa 0,0 l/m 7,5 km/h (2 Bft) S-SO 161 0 min 0,000 mm 0,7 UV-I 141 W/m 8,3 C 10,1 C 19,3 km/h (3 Bft)
15.10.2013 13:35 10,8 C 84 % 1008,3 hPa 0,0 l/m 11,3 km/h (2 Bft) SW 215 0 min 0,000 mm 0,9 UV-I 165 W/m 8,2 C 7,8 C 22,5 km/h (4 Bft)
15.10.2013 13:40 10,7 C 84 % 1008,2 hPa 0,0 l/m 7,5 km/h (2 Bft) S-SW 197 0 min 0,000 mm 0,6 UV-I 76 W/m 8,1 C 9,9 C 16,1 km/h (3 Bft)
15.10.2013 13:45 10,7 C 84 % 1008,2 hPa 0,0 l/m 8,6 km/h (2 Bft) S 184 0 min 0,000 mm 0,6 UV-I 97 W/m 8,1 C 9,2 C 24,1 km/h (4 Bft)
15.10.2013 13:50 10,6 C 85 % 1008,2 hPa 0,0 l/m 7,0 km/h (2 Bft) SW 220 0 min 0,000 mm 0,5 UV-I 77 W/m 8,2 C 10,2 C 14,5 km/h (3 Bft)
15.10.2013 13:55 10,5 C 86 % 1008,1 hPa 0,2 l/m 6,2 km/h (2 Bft) W-NW 302 0 min 0,000 mm 0,9 UV-I 207 W/m 8,3 C 10,5 C 19,3 km/h (3 Bft)
15.10.2013 14:00 10,3 C 87 % 1008,1 hPa 0,0 l/m 6,9 km/h (2 Bft) W-SW 246 0 min 0,000 mm 0,5 UV-I 88 W/m 8,2 C 9,9 C 16,1 km/h (3 Bft)
15.10.2013 14:05 10,2 C 87 % 1008,0 hPa 0,0 l/m 5,4 km/h (1 Bft) W-SW 257 0 min 0,101 mm 0,0 UV-I 47 W/m 8,1 C 10,2 C 11,3 km/h (2 Bft)
15.10.2013 14:10 10,1 C 87 % 1008,1 hPa 0,0 l/m 6,1 km/h (2 Bft) S-SW 195 0 min 0,000 mm 0,7 UV-I 127 W/m 8,0 C 10,1 C 17,7 km/h (3 Bft)
15.10.2013 14:15 10,1 C 88 % 1008,0 hPa 0,0 l/m 4,5 km/h (1 Bft) SW 220 0 min 0,000 mm 0,6 UV-I 97 W/m 8,2 C 10,1 C 12,9 km/h (3 Bft)
15.10.2013 14:20 10,1 C 88 % 1007,9 hPa 0,0 l/m 4,1 km/h (1 Bft) SW 234 0 min 0,000 mm 0,5 UV-I 70 W/m 8,2 C 10,1 C 11,3 km/h (2 Bft)
15.10.2013 14:25 10,1 C 87 % 1007,9 hPa 0,0 l/m 5,5 km/h (1 Bft) W 259 0 min 0,000 mm 0,0 UV-I 63 W/m 8,0 C 10,1 C 14,5 km/h (3 Bft)
15.10.2013 14:30 10,1 C 88 % 1007,8 hPa 0,0 l/m 4,9 km/h (1 Bft) S 189 0 min 0,000 mm 0,6 UV-I 232 W/m 8,2 C 10,1 C 11,3 km/h (2 Bft)
15.10.2013 14:35 10,3 C 87 % 1007,6 hPa 0,0 l/m 4,3 km/h (1 Bft) W-SW 256 0 min 0,000 mm 0,6 UV-I 162 W/m 8,2 C 10,3 C 11,3 km/h (2 Bft)
15.10.2013 14:40 10,4 C 87 % 1007,7 hPa 0,2 l/m 7,7 km/h (2 Bft) SW 217 0 min 0,000 mm 0,0 UV-I 39 W/m 8,3 C 9,5 C 24,1 km/h (4 Bft)
15.10.2013 14:45 10,0 C 86 % 1007,9 hPa 0,2 l/m 13,9 km/h (3 Bft) W-NW 303 0 min 0,000 mm 0,0 UV-I 49 W/m 7,8 C 5,6 C 29,0 km/h (5 Bft)
15.10.2013 14:50 9,4 C 86 % 1007,9 hPa 0,2 l/m 10,5 km/h (2 Bft) W 265 0 min 0,000 mm 0,0 UV-I 74 W/m 7,2 C 6,6 C 20,9 km/h (4 Bft)
15.10.2013 14:55 9,1 C 85 % 1007,9 hPa 0,2 l/m 9,8 km/h (2 Bft) W 260 0 min 0,000 mm 0,0 UV-I 62 W/m 6,7 C 6,7 C 16,1 km/h (3 Bft)
15.10.2013 15:00 8,8 C 87 % 1007,8 hPa 0,0 l/m 6,3 km/h (2 Bft) N-NW 329 0 min 0,000 mm 0,0 UV-I 46 W/m 6,8 C 8,8 C 14,5 km/h (3 Bft)
15.10.2013 15:05 8,7 C 88 % 1007,8 hPa 0,0 l/m 5,7 km/h (1 Bft) W 265 0 min 0,051 mm 0,0 UV-I 47 W/m 6,8 C 8,7 C 14,5 km/h (3 Bft)
15.10.2013 15:10 8,5 C 88 % 1007,8 hPa 0,2 l/m 5,3 km/h (1 Bft) W-NW 287 0 min 0,000 mm 0,5 UV-I 70 W/m 6,6 C 8,5 C 9,7 km/h (2 Bft)
15.10.2013 15:15 8,4 C 89 % 1007,8 hPa 0,0 l/m 3,3 km/h (1 Bft) W-NW 294 0 min 0,000 mm 0,6 UV-I 90 W/m 6,7 C 8,4 C 8,0 km/h (2 Bft)
15.10.2013 15:20 8,4 C 89 % 1007,8 hPa 0,0 l/m 2,6 km/h (1 Bft) W 279 0 min 0,000 mm 0,6 UV-I 56 W/m 6,7 C 8,4 C 6,4 km/h (2 Bft)
15.10.2013 15:25 8,3 C 90 % 1007,8 hPa 0,0 l/m 4,1 km/h (1 Bft) W 263 0 min 0,000 mm 0,7 UV-I 76 W/m 6,8 C 8,3 C 8,0 km/h (2 Bft)
15.10.2013 15:30 8,4 C 90 % 1007,6 hPa 0,0 l/m 2,3 km/h (1 Bft) W 272 0 min 0,000 mm 0,7 UV-I 134 W/m 6,9 C 8,4 C 6,4 km/h (2 Bft)
15.10.2013 15:35 8,6 C 91 % 1007,5 hPa 0,0 l/m 0,8 km/h (0 Bft) W-NW 287 0 min 0,000 mm 0,8 UV-I 162 W/m 7,2 C 8,6 C 4,8 km/h (1 Bft)
15.10.2013 15:40 8,7 C 91 % 1007,5 hPa 0,0 l/m 1,3 km/h (1 Bft) SW 228 0 min 0,000 mm 0,8 UV-I 197 W/m 7,3 C 8,7 C 4,8 km/h (1 Bft)
15.10.2013 15:45 8,8 C 91 % 1007,6 hPa 0,0 l/m 2,1 km/h (1 Bft) W-SW 243 0 min 0,000 mm 0,7 UV-I 156 W/m 7,4 C 8,8 C 8,0 km/h (2 Bft)
15.10.2013 15:50 8,9 C 91 % 1007,6 hPa 0,0 l/m 2,0 km/h (1 Bft) W-SW 241 0 min 0,000 mm 0,7 UV-I 153 W/m 7,5 C 8,9 C 6,4 km/h (2 Bft)
15.10.2013 15:55 8,9 C 90 % 1007,5 hPa 0,0 l/m 3,3 km/h (1 Bft) W 267 0 min 0,000 mm 0,6 UV-I 120 W/m 7,4 C 8,9 C 6,4 km/h (2 Bft)
15.10.2013 16:00 9,0 C 90 % 1007,6 hPa 0,0 l/m 2,4 km/h (1 Bft) W-SW 254 0 min 0,000 mm 0,5 UV-I 86 W/m 7,4 C 9,0 C 6,4 km/h (2 Bft)
15.10.2013 16:05 9,1 C 91 % 1007,5 hPa 0,0 l/m 3,1 km/h (1 Bft) W-NW 295 0 min 0,051 mm 0,0 UV-I 60 W/m 7,7 C 9,1 C 6,4 km/h (2 Bft)
15.10.2013 16:10 9,1 C 90 % 1007,5 hPa 0,0 l/m 4,4 km/h (1 Bft) W 281 0 min 0,000 mm 0,0 UV-I 86 W/m 7,5 C 9,1 C 9,7 km/h (2 Bft)
15.10.2013 16:15 9,2 C 90 % 1007,4 hPa 0,0 l/m 3,9 km/h (1 Bft) W 274 0 min 0,000 mm 0,5 UV-I 113 W/m 7,6 C 9,2 C 9,7 km/h (2 Bft)
15.10.2013 16:20 9,3 C 89 % 1007,3 hPa 0,0 l/m 7,0 km/h (2 Bft) NW 310 0 min 0,000 mm 0,0 UV-I 97 W/m 7,6 C 8,9 C 16,1 km/h (3 Bft)
15.10.2013 16:25 9,4 C 88 % 1007,3 hPa 0,0 l/m 6,1 km/h (2 Bft) W 266 0 min 0,000 mm 0,0 UV-I 84 W/m 7,5 C 9,4 C 14,5 km/h (3 Bft)
15.10.2013 16:30 9,4 C 87 % 1007,3 hPa 0,0 l/m 8,2 km/h (2 Bft) W 271 0 min 0,000 mm 0,0 UV-I 81 W/m 7,3 C 8,1 C 14,5 km/h (3 Bft)
15.10.2013 16:35 9,4 C 86 % 1007,3 hPa 0,0 l/m 7,1 km/h (2 Bft) W 267 0 min 0,000 mm 0,0 UV-I 74 W/m 7,2 C 8,9 C 14,5 km/h (3 Bft)
15.10.2013 16:40 9,4 C 86 % 1007,3 hPa 0,0 l/m 6,0 km/h (2 Bft) W 276 0 min 0,000 mm 0,0 UV-I 77 W/m 7,2 C 9,4 C 16,1 km/h (3 Bft)
15.10.2013 16:45 9,4 C 86 % 1007,3 hPa 0,0 l/m 5,5 km/h (1 Bft) SW 217 0 min 0,000 mm 0,0 UV-I 93 W/m 7,2 C 9,4 C 12,9 km/h (3 Bft)
15.10.2013 16:50 9,4 C 86 % 1007,3 hPa 0,0 l/m 6,6 km/h (2 Bft) W-NW 300 0 min 0,000 mm 0,0 UV-I 88 W/m 7,2 C 9,3 C 14,5 km/h (3 Bft)
15.10.2013 16:55 9,4 C 86 % 1007,4 hPa 0,0 l/m 6,2 km/h (2 Bft) W-NW 289 0 min 0,000 mm 0,0 UV-I 76 W/m 7,2 C 9,4 C 11,3 km/h (2 Bft)
15.10.2013 17:00 9,3 C 86 % 1007,4 hPa 0,0 l/m 5,4 km/h (1 Bft) W 264 0 min 0,000 mm 0,0 UV-I 76 W/m 7,1 C 9,3 C 11,3 km/h (2 Bft)
15.10.2013 17:05 9,3 C 87 % 1007,3 hPa 0,0 l/m 4,4 km/h (1 Bft) W-NW 283 0 min 0,051 mm 0,0 UV-I 65 W/m 7,2 C 9,3 C 8,0 km/h (2 Bft)
15.10.2013 17:10 9,3 C 87 % 1007,3 hPa 0,0 l/m 5,6 km/h (1 Bft) W 265 0 min 0,000 mm 0,0 UV-I 49 W/m 7,2 C 9,3 C 9,7 km/h (2 Bft)
15.10.2013 17:15 9,3 C 87 % 1007,3 hPa 0,0 l/m 3,8 km/h (1 Bft) W 265 0 min 0,000 mm 0,0 UV-I 33 W/m 7,2 C 9,3 C 9,7 km/h (2 Bft)
15.10.2013 17:20 9,3 C 87 % 1007,3 hPa 0,0 l/m 5,7 km/h (1 Bft) W 275 0 min 0,000 mm 0,0 UV-I 26 W/m 7,2 C 9,3 C 11,3 km/h (2 Bft)
15.10.2013 17:25 9,2 C 87 % 1007,3 hPa 0,0 l/m 5,2 km/h (1 Bft) W-NW 292 0 min 0,000 mm 0,0 UV-I 37 W/m 7,2 C 9,2 C 9,7 km/h (2 Bft)
15.10.2013 17:30 9,2 C 87 % 1007,2 hPa 0,0 l/m 4,8 km/h (1 Bft) W-NW 287 0 min 0,000 mm 0,0 UV-I 26 W/m 7,2 C 9,2 C 9,7 km/h (2 Bft)
15.10.2013 17:35 9,2 C 87 % 1007,2 hPa 0,0 l/m 3,7 km/h (1 Bft) W-NW 299 0 min 0,000 mm 0,0 UV-I 32 W/m 7,2 C 9,2 C 8,0 km/h (2 Bft)
15.10.2013 17:40 9,2 C 87 % 1007,2 hPa 0,0 l/m 3,1 km/h (1 Bft) W-NW 296 0 min 0,000 mm 0,0 UV-I 39 W/m 7,2 C 9,2 C 6,4 km/h (2 Bft)
15.10.2013 17:45 9,2 C 87 % 1007,2 hPa 0,0 l/m 3,1 km/h (1 Bft) W-NW 286 0 min 0,000 mm 0,0 UV-I 37 W/m 7,2 C 9,2 C 9,7 km/h (2 Bft)
15.10.2013 17:50 9,2 C 87 % 1007,2 hPa 0,0 l/m 3,0 km/h (1 Bft) W-NW 282 0 min 0,000 mm 0,0 UV-I 33 W/m 7,2 C 9,2 C 9,7 km/h (2 Bft)
15.10.2013 17:55 9,2 C 87 % 1007,2 hPa 0,0 l/m 3,3 km/h (1 Bft) W-NW 292 0 min 0,000 mm 0,0 UV-I 32 W/m 7,2 C 9,2 C 8,0 km/h (2 Bft)
15.10.2013 18:00 9,1 C 87 % 1007,1 hPa 0,0 l/m 6,1 km/h (2 Bft) NW 313 0 min 0,000 mm 0,0 UV-I 30 W/m 7,1 C 9,1 C 14,5 km/h (3 Bft)
15.10.2013 18:05 9,1 C 86 % 1007,2 hPa 0,0 l/m 3,6 km/h (1 Bft) W-NW 296 0 min 0,025 mm 0,0 UV-I 26 W/m 6,9 C 9,1 C 9,7 km/h (2 Bft)
15.10.2013 18:10 9,1 C 87 % 1007,3 hPa 0,0 l/m 2,7 km/h (1 Bft) W-NW 282 0 min 0,000 mm 0,0 UV-I 23 W/m 7,1 C 9,1 C 9,7 km/h (2 Bft)
15.10.2013 18:15 9,0 C 87 % 1007,3 hPa 0,0 l/m 1,8 km/h (1 Bft) W 281 0 min 0,000 mm 0,0 UV-I 14 W/m 7,0 C 9,0 C 6,4 km/h (2 Bft)
15.10.2013 18:20 8,9 C 87 % 1007,3 hPa 0,0 l/m 0,2 km/h (0 Bft) W 281 0 min 0,000 mm 0,0 UV-I 11 W/m 6,9 C 8,9 C 1,6 km/h (1 Bft)
15.10.2013 18:25 8,9 C 88 % 1007,3 hPa 0,0 l/m 0,0 km/h (0 Bft) W 281 0 min 0,000 mm 0,0 UV-I 5 W/m 7,0 C 8,9 C 0,0 km/h (0 Bft)
15.10.2013 18:30 8,8 C 88 % 1007,4 hPa 0,0 l/m 0,0 km/h (0 Bft) W 281 0 min 0,000 mm 0,0 UV-I 0 W/m 6,9 C 8,8 C 0,0 km/h (0 Bft)
15.10.2013 18:35 8,7 C 88 % 1007,6 hPa 0,0 l/m 0,0 km/h (0 Bft) W 281 0 min 0,000 mm 0,0 UV-I 0 W/m 6,8 C 8,7 C 0,0 km/h (0 Bft)
15.10.2013 18:40 8,6 C 88 % 1007,5 hPa 0,0 l/m 0,0 km/h (0 Bft) W 281 0 min 0,000 mm 0,0 UV-I 0 W/m 6,7 C 8,6 C 1,6 km/h (1 Bft)
15.10.2013 18:45 8,4 C 89 % 1007,6 hPa 0,0 l/m 0,3 km/h (0 Bft) W 281 0 min 0,000 mm 0,0 UV-I 0 W/m 6,7 C 8,4 C 1,6 km/h (1 Bft)
15.10.2013 18:50 8,2 C 89 % 1007,7 hPa 0,0 l/m 0,0 km/h (0 Bft) W 281 0 min 0,000 mm 0,0 UV-I 0 W/m 6,5 C 8,2 C 0,0 km/h (0 Bft)
15.10.2013 18:55 8,0 C 89 % 1007,7 hPa 0,0 l/m 0,0 km/h (0 Bft) W 281 0 min 0,000 mm 0,0 UV-I 0 W/m 6,3 C 8,0 C 0,0 km/h (0 Bft)
15.10.2013 19:00 7,8 C 89 % 1007,7 hPa 0,0 l/m 0,0 km/h (0 Bft) W 281 0 min 0,000 mm 0,0 UV-I 0 W/m 6,1 C 7,8 C 0,0 km/h (0 Bft)
15.10.2013 19:05 7,7 C 89 % 1007,8 hPa 0,0 l/m 0,0 km/h (0 Bft) W 281 0 min 0,000 mm 0,0 UV-I 0 W/m 6,0 C 7,7 C 0,0 km/h (0 Bft)
15.10.2013 19:10 7,6 C 90 % 1007,8 hPa 0,0 l/m 0,0 km/h (0 Bft) W 281 0 min 0,000 mm 0,0 UV-I 0 W/m 6,1 C 7,6 C 0,0 km/h (0 Bft)
15.10.2013 19:15 7,4 C 91 % 1008,0 hPa 0,0 l/m 0,0 km/h (0 Bft) W 281 0 min 0,000 mm 0,0 UV-I 0 W/m 6,0 C 7,4 C 0,0 km/h (0 Bft)
15.10.2013 19:20 7,4 C 91 % 1008,0 hPa 0,0 l/m 0,0 km/h (0 Bft) W 281 0 min 0,000 mm 0,0 UV-I 0 W/m 6,0 C 7,4 C 0,0 km/h (0 Bft)
15.10.2013 19:25 7,4 C 91 % 1008,0 hPa 0,0 l/m 0,0 km/h (0 Bft) W 281 0 min 0,000 mm 0,0 UV-I 0 W/m 6,0 C 7,4 C 1,6 km/h (1 Bft)
15.10.2013 19:30 7,3 C 92 % 1008,0 hPa 0,0 l/m 0,0 km/h (0 Bft) W 281 0 min 0,000 mm 0,0 UV-I 0 W/m 6,1 C 7,3 C 0,0 km/h (0 Bft)
15.10.2013 19:35 7,3 C 92 % 1008,0 hPa 0,0 l/m 0,0 km/h (0 Bft) W 281 0 min 0,000 mm 0,0 UV-I 0 W/m 6,1 C 7,3 C 0,0 km/h (0 Bft)
15.10.2013 19:40 7,2 C 92 % 1008,0 hPa 0,0 l/m 0,0 km/h (0 Bft) W 281 0 min 0,000 mm 0,0 UV-I 0 W/m 6,0 C 7,2 C 1,6 km/h (1 Bft)
15.10.2013 19:45 7,1 C 92 % 1008,0 hPa 0,0 l/m 0,0 km/h (0 Bft) W 281 0 min 0,000 mm 0,0 UV-I 0 W/m 5,9 C 7,1 C 0,0 km/h (0 Bft)
15.10.2013 19:50 6,9 C 92 % 1008,0 hPa 0,0 l/m 0,0 km/h (0 Bft) W 281 0 min 0,000 mm 0,0 UV-I 0 W/m 5,7 C 6,9 C 1,6 km/h (1 Bft)
15.10.2013 19:55 6,8 C 92 % 1008,1 hPa 0,0 l/m 0,0 km/h (0 Bft) W 281 0 min 0,000 mm 0,0 UV-I 0 W/m 5,6 C 6,8 C 0,0 km/h (0 Bft)
15.10.2013 20:00 6,7 C 92 % 1008,1 hPa 0,0 l/m 0,0 km/h (0 Bft) W 281 0 min 0,000 mm 0,0 UV-I 0 W/m 5,5 C 6,7 C 0,0 km/h (0 Bft)
15.10.2013 20:05 6,7 C 92 % 1008,2 hPa 0,0 l/m 0,0 km/h (0 Bft) W 281 0 min 0,000 mm 0,0 UV-I 0 W/m 5,5 C 6,7 C 0,0 km/h (0 Bft)
15.10.2013 20:10 6,6 C 92 % 1008,2 hPa 0,0 l/m 0,0 km/h (0 Bft) W 281 0 min 0,000 mm 0,0 UV-I 0 W/m 5,4 C 6,6 C 0,0 km/h (0 Bft)
15.10.2013 20:15 6,4 C 92 % 1008,2 hPa 0,0 l/m 0,0 km/h (0 Bft) W 281 0 min 0,000 mm 0,0 UV-I 0 W/m 5,2 C 6,4 C 0,0 km/h (0 Bft)
15.10.2013 20:20 6,4 C 92 % 1008,1 hPa 0,0 l/m 0,0 km/h (0 Bft) W 281 0 min 0,000 mm 0,0 UV-I 0 W/m 5,2 C 6,4 C 0,0 km/h (0 Bft)
15.10.2013 20:25 6,3 C 93 % 1008,1 hPa 0,0 l/m 0,0 km/h (0 Bft) W 281 0 min 0,000 mm 0,0 UV-I 0 W/m 5,3 C 6,3 C 0,0 km/h (0 Bft)
15.10.2013 20:30 6,3 C 92 % 1008,1 hPa 0,0 l/m 0,0 km/h (0 Bft) W 281 0 min 0,000 mm 0,0 UV-I 0 W/m 5,1 C 6,3 C 0,0 km/h (0 Bft)
15.10.2013 20:35 6,2 C 93 % 1008,2 hPa 0,0 l/m 0,0 km/h (0 Bft) W 281 0 min 0,000 mm 0,0 UV-I 0 W/m 5,2 C 6,2 C 0,0 km/h (0 Bft)
15.10.2013 20:40 6,2 C 93 % 1008,1 hPa 0,0 l/m 0,0 km/h (0 Bft) W 281 0 min 0,000 mm 0,0 UV-I 0 W/m 5,2 C 6,2 C 0,0 km/h (0 Bft)
15.10.2013 20:45 6,1 C 93 % 1008,1 hPa 0,0 l/m 0,0 km/h (0 Bft) W 281 0 min 0,000 mm 0,0 UV-I 0 W/m 5,1 C 6,1 C 0,0 km/h (0 Bft)
15.10.2013 20:50 6,1 C 93 % 1008,0 hPa 0,0 l/m 0,0 km/h (0 Bft) W 281 0 min 0,000 mm 0,0 UV-I 0 W/m 5,1 C 6,1 C 0,0 km/h (0 Bft)
15.10.2013 20:55 6,0 C 93 % 1008,1 hPa 0,0 l/m 0,0 km/h (0 Bft) W 281 0 min 0,000 mm 0,0 UV-I 0 W/m 5,0 C 6,0 C 0,0 km/h (0 Bft)
15.10.2013 21:00 5,9 C 93 % 1008,1 hPa 0,0 l/m 0,0 km/h (0 Bft) W 281 0 min 0,000 mm 0,0 UV-I 0 W/m 4,9 C 5,9 C 0,0 km/h (0 Bft)
15.10.2013 21:05 5,9 C 93 % 1008,1 hPa 0,0 l/m 0,0 km/h (0 Bft) W 281 0 min 0,000 mm 0,0 UV-I 0 W/m 4,9 C 5,9 C 0,0 km/h (0 Bft)
15.10.2013 21:10 5,9 C 94 % 1008,1 hPa 0,0 l/m 0,0 km/h (0 Bft) W 281 0 min 0,000 mm 0,0 UV-I 0 W/m 5,0 C 5,9 C 0,0 km/h (0 Bft)
15.10.2013 21:15 5,9 C 94 % 1008,1 hPa 0,0 l/m 0,0 km/h (0 Bft) W 281 0 min 0,000 mm 0,0 UV-I 0 W/m 5,0 C 5,9 C 0,0 km/h (0 Bft)
15.10.2013 21:20 5,9 C 94 % 1008,1 hPa 0,0 l/m 0,0 km/h (0 Bft) W 281 0 min 0,000 mm 0,0 UV-I 0 W/m 5,0 C 5,9 C 0,0 km/h (0 Bft)
15.10.2013 21:25 6,0 C 94 % 1008,0 hPa 0,0 l/m 0,0 km/h (0 Bft) W 281 0 min 0,000 mm 0,0 UV-I 0 W/m 5,1 C 6,0 C 0,0 km/h (0 Bft)
15.10.2013 21:30 6,0 C 94 % 1008,1 hPa 0,0 l/m 0,0 km/h (0 Bft) W 281 0 min 0,000 mm 0,0 UV-I 0 W/m 5,1 C 6,0 C 0,0 km/h (0 Bft)
15.10.2013 21:35 6,0 C 94 % 1008,0 hPa 0,0 l/m 0,0 km/h (0 Bft) W 281 0 min 0,000 mm 0,0 UV-I 0 W/m 5,1 C 6,0 C 0,0 km/h (0 Bft)
15.10.2013 21:40 6,1 C 94 % 1008,0 hPa 0,0 l/m 0,0 km/h (0 Bft) W 281 0 min 0,000 mm 0,0 UV-I 0 W/m 5,2 C 6,1 C 0,0 km/h (0 Bft)
15.10.2013 21:45 6,1 C 94 % 1008,0 hPa 0,0 l/m 0,0 km/h (0 Bft) W 281 0 min 0,000 mm 0,0 UV-I 0 W/m 5,2 C 6,1 C 1,6 km/h (1 Bft)
15.10.2013 21:50 6,1 C 94 % 1008,1 hPa 0,0 l/m 0,0 km/h (0 Bft) W 281 0 min 0,000 mm 0,0 UV-I 0 W/m 5,2 C 6,1 C 0,0 km/h (0 Bft)
15.10.2013 21:55 6,1 C 94 % 1008,1 hPa 0,0 l/m 0,0 km/h (0 Bft) W 281 0 min 0,000 mm 0,0 UV-I 0 W/m 5,2 C 6,1 C 0,0 km/h (0 Bft)
15.10.2013 22:00 6,1 C 94 % 1008,1 hPa 0,0 l/m 0,0 km/h (0 Bft) W 281 0 min 0,000 mm 0,0 UV-I 0 W/m 5,2 C 6,1 C 0,0 km/h (0 Bft)
15.10.2013 22:05 6,1 C 94 % 1008,1 hPa 0,0 l/m 0,0 km/h (0 Bft) W 281 0 min 0,000 mm 0,0 UV-I 0 W/m 5,2 C 6,1 C 0,0 km/h (0 Bft)
15.10.2013 22:10 6,1 C 94 % 1008,1 hPa 0,0 l/m 0,0 km/h (0 Bft) W 281 0 min 0,000 mm 0,0 UV-I 0 W/m 5,2 C 6,1 C 0,0 km/h (0 Bft)
15.10.2013 22:15 6,1 C 95 % 1008,1 hPa 0,0 l/m 0,0 km/h (0 Bft) W 281 0 min 0,000 mm 0,0 UV-I 0 W/m 5,4 C 6,1 C 0,0 km/h (0 Bft)
15.10.2013 22:20 6,1 C 95 % 1008,2 hPa 0,0 l/m 0,0 km/h (0 Bft) W 281 0 min 0,000 mm 0,0 UV-I 0 W/m 5,4 C 6,1 C 0,0 km/h (0 Bft)
15.10.2013 22:25 6,1 C 95 % 1008,1 hPa 0,0 l/m 0,0 km/h (0 Bft) W 281 0 min 0,000 mm 0,0 UV-I 0 W/m 5,4 C 6,1 C 0,0 km/h (0 Bft)
15.10.2013 22:30 6,2 C 95 % 1008,1 hPa 0,0 l/m 0,0 km/h (0 Bft) W 281 0 min 0,000 mm 0,0 UV-I 0 W/m 5,5 C 6,2 C 1,6 km/h (1 Bft)
15.10.2013 22:35 6,2 C 95 % 1008,2 hPa 0,0 l/m 0,0 km/h (0 Bft) W 281 0 min 0,000 mm 0,0 UV-I 0 W/m 5,5 C 6,2 C 0,0 km/h (0 Bft)
15.10.2013 22:40 6,3 C 95 % 1008,3 hPa 0,0 l/m 0,0 km/h (0 Bft) W 281 0 min 0,000 mm 0,0 UV-I 0 W/m 5,6 C 6,3 C 0,0 km/h (0 Bft)
15.10.2013 22:45 6,3 C 95 % 1008,3 hPa 0,0 l/m 0,0 km/h (0 Bft) W 281 0 min 0,000 mm 0,0 UV-I 0 W/m 5,6 C 6,3 C 0,0 km/h (0 Bft)
15.10.2013 22:50 6,3 C 95 % 1008,2 hPa 0,0 l/m 0,0 km/h (0 Bft) W 281 0 min 0,000 mm 0,0 UV-I 0 W/m 5,6 C 6,3 C 0,0 km/h (0 Bft)
15.10.2013 22:55 6,3 C 95 % 1008,2 hPa 0,0 l/m 0,0 km/h (0 Bft) W 281 0 min 0,000 mm 0,0 UV-I 0 W/m 5,6 C 6,3 C 0,0 km/h (0 Bft)
15.10.2013 23:00 6,3 C 95 % 1008,3 hPa 0,0 l/m 0,0 km/h (0 Bft) W 281 0 min 0,000 mm 0,0 UV-I 0 W/m 5,6 C 6,3 C 0,0 km/h (0 Bft)
15.10.2013 23:05 6,3 C 95 % 1008,3 hPa 0,0 l/m 0,0 km/h (0 Bft) W 281 0 min 0,000 mm 0,0 UV-I 0 W/m 5,6 C 6,3 C 0,0 km/h (0 Bft)
15.10.2013 23:10 6,3 C 95 % 1008,3 hPa 0,0 l/m 0,0 km/h (0 Bft) W 281 0 min 0,000 mm 0,0 UV-I 0 W/m 5,6 C 6,3 C 0,0 km/h (0 Bft)
15.10.2013 23:15 6,3 C 95 % 1008,3 hPa 0,0 l/m 0,0 km/h (0 Bft) W 281 0 min 0,000 mm 0,0 UV-I 0 W/m 5,6 C 6,3 C 0,0 km/h (0 Bft)
15.10.2013 23:20 6,3 C 95 % 1008,3 hPa 0,0 l/m 0,0 km/h (0 Bft) W 281 0 min 0,000 mm 0,0 UV-I 0 W/m 5,6 C 6,3 C 0,0 km/h (0 Bft)
15.10.2013 23:25 6,3 C 95 % 1008,3 hPa 0,0 l/m 0,0 km/h (0 Bft) W 281 0 min 0,000 mm 0,0 UV-I 0 W/m 5,6 C 6,3 C 0,0 km/h (0 Bft)
15.10.2013 23:30 6,4 C 95 % 1008,3 hPa 0,0 l/m 0,0 km/h (0 Bft) W 281 0 min 0,000 mm 0,0 UV-I 0 W/m 5,7 C 6,4 C 0,0 km/h (0 Bft)
15.10.2013 23:35 6,4 C 95 % 1008,3 hPa 0,0 l/m 0,0 km/h (0 Bft) W 281 0 min 0,000 mm 0,0 UV-I 0 W/m 5,7 C 6,4 C 0,0 km/h (0 Bft)
15.10.2013 23:40 6,4 C 95 % 1008,4 hPa 0,0 l/m 0,0 km/h (0 Bft) W 281 0 min 0,000 mm 0,0 UV-I 0 W/m 5,7 C 6,4 C 0,0 km/h (0 Bft)
15.10.2013 23:45 6,4 C 95 % 1008,4 hPa 0,0 l/m 0,0 km/h (0 Bft) W 281 0 min 0,000 mm 0,0 UV-I 0 W/m 5,7 C 6,4 C 0,0 km/h (0 Bft)
15.10.2013 23:50 6,4 C 95 % 1008,4 hPa 0,0 l/m 0,0 km/h (0 Bft) W 281 0 min 0,000 mm 0,0 UV-I 0 W/m 5,7 C 6,4 C 0,0 km/h (0 Bft)
15.10.2013 23:55 6,4 C 95 % 1008,4 hPa 0,0 l/m 0,0 km/h (0 Bft) W 281 0 min 0,000 mm 0,0 UV-I 0 W/m 5,7 C 6,4 C 0,0 km/h (0 Bft)
_ Min-Zeit 21:00 12:00 18:00 - 01:55 - - - - - - 21:00 14:45 01:55
Minimum _ 5,9 C 80 % 1007,1 hPa - 0,0 km/h (0 Bft) - - - - - - 4,9 C 5,6 C 0,0 km/h (0 Bft)
_ Max-Zeit 00:20 22:15 00:05 00:55 01:00 - - 08:50 11:05 12:25 11:20 00:00 00:20 01:00
Maximum _ 11,7 C 95 % 1012,2 hPa 0,6 l/m 15,4 km/h
SW (3 Bft)
- - 5 min 0,178 mm 1,3 UV-I 598 W/m 10,7 C 11,7 C 33,8 km/h
O-SO (5 Bft)
Durchschnitt _ 9,4 C 90 % 1009,0 hPa #8,6 l/m 3,7 km/h (1 Bft) W - #2:30 h #0,838 mm 0,8 UV-I 153 W/m 7,8 C 9,1 C 9,1 km/h (2 Bft)